Regional Weather Roundup
Issued by NWS

Home | Current Version | Previous Version | Text Only | Print | Product List | Glossary On
Versions: 1 2 3 4 5 6 7 8 9 10 11 12 13 14 15 16 17 18 19 20 21 22 23 24 25 26 27 28 29 30 31 32 33 34 35 36 37 38 39 40 41 42 43 44 45 46 47 48 49 50
513
ASUS44 KLIX 311511
RWRLA
LOUISIANA WEATHER ROUNDUP
NATIONAL WEATHER SERVICE NEW ORLEANS LA
1000 AM CDT TUE MAR 31 2015

NOTE: "FAIR" INDICATES FEW OR NO CLOUDS BELOW 12,000 FEET WITH NO
      SIGNIFICANT WEATHER AND/OR OBSTRUCTIONS TO VISIBILITY.
      SKY/WX - SKY CONDITION AND SIGNIFICANT WEATHER.
      TMP - AIR TEMPERATURE.    DP   - DEWPOINT TEMPERATURE.
      RH  - RELATIVE HUMIDITY.  PRES - PRESSURE.
      HX  - HEAT INDEX.         WCI  - WIND CHILL INDEX.

*  THESE STATIONS ARE NOT NWS OR FAA STATIONS AND ARE NOT UNDER
   NWS QUALITY CONTROL.

LAZ040-048-061>063-065-066-069-311600-
SOUTHEAST LOUISIANA

CITY           SKY/WX    TMP DP  RH WIND       PRES   REMARKS
N.O. AUDUBON     N/A     74  71  92 MISG        N/A
N.O. INTL ARPT PTSUNNY   72  65  78 S7        30.15R
N.O. LAKEFRONT MOSUNNY   74  64  71 W8        30.15R
SLIDELL        PTSUNNY   73  65  75 SW9       30.14R
BATON ROUGE    SUNNY     73  65  75 SW10      30.13S
BOOTHVILLE     SUNNY     74  66  76 SW7       30.16R
BELLE CHASSE   PTSUNNY   73  66  78 SW9       30.14S
BOGALUSA*        N/A     74  62  66 SW10      30.15S
GALLIANO*      SUNNY     77  67  72 SW9       30.16R
NEW ROADS*     FAIR      72  64  75 SW12      30.14R
GONZALES*      FAIR      74  68  82 SW6       30.14R
HAMMOND*       MOSUNNY   75  61  60 SW8       30.15S
HOUMA*         MOSUNNY   73  66  78 SW5       30.15R
PORT FOURCHON* SUNNY     75  66  73 S5        30.18S

$$

LAZ041-044-053-054-311600-
SOUTHWEST LOUISIANA

CITY           SKY/WX    TMP DP  RH WIND       PRES   REMARKS
LAKE CHARLES   MOSUNNY  N/A N/A N/A SW9       30.12R
LAFAYETTE      PTSUNNY   72  66  81 SW6       30.14R
PATTERSON      MOSUNNY   73  64  73 SW8       30.16R
SALT POINT       N/A     72  68  87 VRB3      30.13R
NEW IBERIA     CLOUDY    71  66  84 SW6       30.15R
CHENAULT AIRPK PTSUNNY   70  66  88 SW6       30.13R

$$

LAZ027-028-311600-
CENTRAL LOUISIANA

CITY           SKY/WX    TMP DP  RH WIND       PRES   REMARKS
FORT POLK      CLOUDY    68  64  87 SW7       30.11S
ALEXANDRIA INT CLOUDY    70  62  76 SW10      30.10S
ALEXANDRIA     PTSUNNY   70  61  73 W12       30.12R

$$

LAZ001-002-311600-
NORTHWEST LOUISIANA

CITY           SKY/WX    TMP DP  RH WIND       PRES   REMARKS
SHREVEPORT     CLOUDY    69  62  78 SW10G21   30.06R
BARKSDALE AFB  CLOUDY    68  61  79 SW13G21   30.06S
DTN SHREVEPORT CLOUDY    67  60  78 SW13G22   30.07R

$$

LAZ014-016-311600-
NORTHEAST LOUISIANA

CITY           SKY/WX    TMP DP  RH WIND       PRES   REMARKS
MONROE         PTSUNNY   69  63  81 SW12      30.10R
TALLULAH       CLOUDY    68  60  75 W9        30.11R

$$




USA.gov is the U.S. government's official web portal to all federal, state and local government web resources and services.